{"data":{"norad_id":63733,"intl_designator":"2025-088K","name":"KUIPER-00018","alt_names":[],"object_type":"PAYLOAD","status":"ACTIVE","operator":null,"country":"US","launch_date":"2025-04-28","launch_site_code":"AFETR","launch_vehicle":null,"mission":null,"orbit_class":"UNKNOWN","rcs_meters":null,"size_class":null,"mass_kg":null,"dimensions":null,"purposes":[],"wikipedia_slug":null,"has_3d_model":false,"image_url":null,"decayed_at":null,"tle_current":{"epoch":"2026-05-25T05:36:43.027776Z","epoch_age_seconds":69040,"freshness":"FRESH","line1":"1 63733U 25088K   26145.23383134 -.00001686  00000+0 -19218-3 0  9996","line2":"2 63733  51.9029 122.1078 0000415  78.4897 281.6112 14.79931033 58828","mean_motion":14.79931033,"eccentricity":4.15e-5,"inclination_deg":51.9029,"raan_deg":122.1078,"arg_perigee_deg":78.4897,"mean_anomaly_deg":281.6112,"bstar":-0.00019218,"rev_number":5882,"period_min":97.301831496901,"perigee_km":629.25101984165,"apogee_km":629.83265718525,"semimajor_km":7007.6788385134,"source":"CELESTRAK","updated_at":"2026-05-25T13:38:03.926652Z"}}}